User: anonymous   Login
Location: Ardick
(31.4613°N, 81.4334°W)
Time: 16:24:46
(UTC+00:00)
Language:

X-37B - Orbit

View from above orbital plane
View from above orbital plane
View from above satellite
View from above satellite

Ground track
Ground track

The orbit data is extracted from the following two-line orbital elements,

1 45606U 20029A   21286.00573477 0.00000000  00000-0  00000-0 0    09
2 45606  45.0380 259.8000 0003004  89.9765 270.0231 15.60030799    03
Epoch (UTC): 13 October 2021 00:08:15
Eccentricity: 0.0003004
inclination: 45.0380°
perigee height: 385 km
apogee height: 389 km
right ascension of ascending node: 259.8000°
argument of perigee: 89.9765°
revolutions per day: 15.60030799
mean anomaly at epoch: 270.0231°
orbit number at epoch: 0

The dashed part of the orbit path shows where the satellite is in the earth's shadow,  

DLR